#timestamp,LO_Frequency,Hit,StdDev 
1590642015.7,286046999.5,N
1590642035.5,286046996.8,N
1590642055.3,286046999.1,N
1590642075.2,286046996.7,N
1590642095.0,286046998.9,N
1590642095.9,286046998.9,N
1590642115.7,286047000.8,N
1590642135.6,286046999.1,N
1590642155.4,286046999.0,N
1590642175.3,286046999.5,N
1590642195.1,286047001.2,N
1590642215.8,286046999.6,N
1590642235.7,286046998.3,N
1590642255.5,286047000.7,N
1590642275.4,286046999.8,N
1590642295.2,286047001.1,N
1590642315.0,286047001.1,N
1590642315.9,286047001.1,N
1590642335.8,286047000.2,N
1590642355.6,286047002.1,N
1590642375.4,286047000.4,N
1590642395.3,286047001.1,N
1590642415.1,286046996.5,N
1590642435.9,286046996.5,N
1590642455.7,286046998.6,N
1590642475.5,286047000.8,N
1590642495.4,286047002.8,N
1590642515.2,286047002.3,N
1590642535.0,286047002.1,N
1590642536.0,286047002.1,N
1590642555.8,286047001.4,N
1590642575.6,286047002.4,N
1590642595.5,286047000.9,N
1590642615.3,286046999.2,N
1590642635.1,286047000.2,N
1590642655.9,286046999.9,N
1590642675.7,286047001.1,N
1590642695.6,286047001.2,N
1590642715.4,286046999.8,N
1590642735.2,286047000.0,N
1590642755.1,286046996.8,N
1590642756.0,286046996.8,N
1590642775.8,286046999.5,N
1590642795.6,286046998.3,N
1590642815.5,286046999.7,N
1590642835.3,286047002.7,N
1590642855.2,286047003.7,N
1590642875.9,286047001.5,N
1590642895.7,286047004.3,N
1590642915.6,286047004.4,N
1590642935.4,286047000.4,N
1590642955.2,286047005.2,N
1590642975.1,286047011.5,Y
1590642976.0,286047011.5,P
1590642995.8,286047006.2,N
1590643015.7,286047004.9,N
1590643035.5,286047006.3,N
1590643055.3,286047009.0,N
1590643075.2,286047004.6,N
1590643095.0,286047004.3,N
1590643095.9,286047004.3,N
1590643115.8,286047001.5,N
1590643135.6,286047001.0,N
1590643155.4,286047000.7,N
1590643175.3,286047001.8,N
1590643195.1,286047002.0,N
1590643215.9,286047002.1,N
1590643235.7,286047001.2,N
1590643255.5,286047000.6,N
1590643275.4,286046998.7,N
1590643295.2,286046998.4,N
1590643315.0,286047002.5,N
1590643315.9,286047002.5,N
1590643335.8,286047002.6,N
1590643355.6,286047003.8,N
1590643375.5,286047000.3,N
1590643395.3,286046999.2,N
1590643415.1,286046995.8,N
1590643435.9,286046997.8,N
1590643455.7,286046999.4,N
1590643475.6,286047001.2,N
1590643495.4,286046999.8,N
1590643515.2,286047000.2,N
1590643535.1,286046998.5,N
1590643536.0,286046998.5,N
1590643555.8,286047000.0,N
1590643575.6,286047000.8,N
1590643595.5,286046998.1,N
1590643615.3,286046996.6,N
1590643635.2,286046996.8,N
1590643655.9,286046997.4,N
1590643675.7,286046997.1,N
1590643695.6,286046997.4,N
1590643715.4,286046995.3,N
1590643735.3,286046995.3,N
1590643755.1,286046995.0,N
1590643756.0,286046995.0,N
1590643775.8,286046995.1,N
1590643795.7,286046997.4,N
1590643815.5,286046998.7,N
1590643835.3,286046997.1,N
1590643855.2,286046995.4,N
1590643875.0,286046997.8,N
1590643875.9,286046997.8,N
1590643895.8,286046997.6,N
1590643915.6,286046995.1,N
1590643935.4,286046997.0,N
1590643955.3,286046999.6,N
1590643975.1,286046997.8,N
1590643995.9,286046998.4,N
1590644015.7,286046998.8,N
1590644035.5,286046998.9,N
1590644055.4,286046998.6,N
1590644075.2,286046999.4,N
1590644095.1,286046997.0,N
1590644096.0,286046997.0,N
1590644115.8,286046997.2,N
1590644135.6,286046999.2,N
1590644155.5,286046995.1,Y
1590644175.3,286046999.4,P
1590644195.2,286046998.2,N
1590644215.0,286047001.1,N
1590644215.9,286047001.1,N
1590644235.7,286047001.1,N
1590644255.6,286047001.1,N
1590644275.4,286046998.9,N
1590644295.3,286046999.4,N
1590644315.1,286046999.0,N
1590644316.0,286046999.0,N
1590644335.8,286047001.1,N
1590644355.7,286046998.5,N
1590644375.5,286046999.0,N
1590644395.3,286046998.3,N
1590644415.2,286046999.3,N
1590644435.0,286046998.9,N
1590644435.9,286046998.9,N
1590644455.8,286047000.7,N
1590644475.6,286047004.2,Y
1590644495.4,286047001.9,P
1590644515.3,286047001.4,N
1590644535.1,286047005.3,P
1590644555.9,286047005.3,N
1590644575.7,286047004.9,N
1590644595.5,286047007.1,Y
1590644615.4,286047011.9,P
1590644635.2,286047002.2,N
1590644655.1,286047004.0,N
1590644656.0,286047004.0,N
1590644675.8,286047000.1,N
1590644695.6,286047001.5,N
1590644715.5,286047001.4,N
1590644735.3,286046999.9,N
1590644755.2,286047000.6,N
1590644775.9,286047002.3,N
1590644795.7,286047000.4,N
1590644815.6,286047000.5,N
1590644835.1,286046999.7,N
1590644855.9,286047001.9,N
1590644875.7,286047000.1,N
1590644895.6,286046999.8,N
1590644915.4,286047002.1,N
1590644935.2,286047001.3,N
1590644955.1,286047003.9,N
1590644956.0,286047003.9,N
1590644975.8,286047002.1,N
1590644995.6,286046999.7,N
1590645015.5,286047011.9,Y
1590645035.3,286047001.0,P
1590645055.2,286047002.0,P
1590645075.9,286047001.2,N
1590645095.7,286047002.3,Y
1590645115.6,286046996.5,P
1590645135.4,286046999.5,N
1590645155.3,286046998.9,N
1590645175.1,286047000.3,N
1590645176.0,286047000.3,N
1590645195.8,286046998.5,N
1590645215.7,286046998.8,N
1590645235.5,286046998.8,N
1590645255.4,286046999.5,N
1590645275.2,286046996.9,N
1590645295.0,286046997.6,N
1590645295.9,286046997.6,N
1590645315.8,286046996.5,N
1590645335.6,286046998.7,N
1590645355.4,286047000.7,N
1590645375.3,286046999.9,N
1590645395.1,286046999.8,N
1590645415.9,286047002.0,N
1590645435.7,286047001.1,N
1590645455.5,286047000.6,N
1590645475.4,286047001.2,N
1590645495.2,286047000.5,N
1590645515.1,286046999.8,N
1590645516.0,286046999.8,N
1590645535.8,286046998.6,N
1590645555.6,286047000.5,N
1590645575.5,286046998.1,N
1590645595.3,286046999.2,N
